Location: Ferchesar
(52.6477°N, 12.4298°E)
Time: 00:15:29
(UTC+01:00)

Vanguard 2 Rocket - Pass Details

Date: 03 December 2021
Orbit: 554 x 3325 km, 32.9° (Epoch: 21 January)

Event Time Altitude Azimuth Distance (km) Brightness Sun altitude
Rises 19:41:09 0° 230° (SW) 3,773 10.6 -32.7°
Reaches altitude 10° 19:44:04 10° 214° (SW) 3,151 9.9 -33.1°
Enters shadow 19:49:15 22° 173° (S) 2,894 9.3 -33.9°
Maximum altitude 19:50:02 23° 166° (SSE) 2,962 - -34.0°
Drops below altitude 10° 19:58:40 10° 122° (ESE) 4,751 - -35.3°
Sets 20:04:28 0° 111° (ESE) 6,279 - -36.2°
